C/2019 K5 ( Young )

Japanese version
Home page
Updated on September 17, 2019

---------------------------------------------------------------------

* Profile

Discovery Date May 25, 2019
Magnitude 17.1 mag
Discoverer David Young (Asteroid Terrestrial-Impact Last Alert System (ATLAS) search program)

* Pictures

* Orbital Elements

Epoch 2019 June 6.0 TT = JDT 2458640.5
T 2019 June 22.74636 TT                                 Williams
q   2.0350378            (2000.0)            P               Q
z  +0.0066509      Peri.  174.91418     +0.99067074     +0.13566003
 +/-0.0000048      Node   177.18868     -0.13248650     +0.98101816
e   0.9864652      Incl.   15.31570     -0.03191880     +0.13856307
From 230 observations 2018 June 17-2019 Aug. 23, mean residual 0".4.

* Finding Charts

* Magnitudes Graph

        m1 = 10.0 + 5 log d + 13.5 log r

---------------------------------------------------------------------

The orbital elements are published on M.P.E.C. 2019-Q135.
The charts are made with StellaNavigator Ver.10 (AstroArts).
The magnitudes graphs are made with Comet for Windows.

---------------------------------------------------------------------

Copyright(C) Seiichi Yoshida (comet@aerith.net). All rights reserved.